CZ-6A DEB, 54344

Orbit data source: Space-Track

CZ-6A DEB, 54344 is space debris in SSO originally from a launch on Fri, 11 Nov 2022 UTC launched from the Taiyaun Space Center, China (TSC). Debris objects in space refer to the collection of defunct objects orbiting the Earth. Examples of debris include non-operational satellites, rocket bodies, and fragments generated from explosions, collisions, or faulty payload assembly.

Loading next visibility...
Identifier
54344, 2022-151CP
Orbit
SSO
Country
Flag of CNCN / PRC
Related business
Manufacturer
SAST
Mission
Spacecraft
Bus & Motor
Unknown
Mass
Unknown
Launch date (UTC)
2022-11-11 (3 years ago)
Launch vehicle
Unknown
Launch site
Taiyaun Space Center, China (TSC)
Object type
Payload
Rocket body
Debris
Shape & HBR
Unknown shape, 0.2 m
Radar Cross Section
Small (<0.1 m²)

Expand to show TLE details & history
Last TLE update: 20 hours ago

TLE from 20 hours ago
0 CZ-6A DEB
1 54344U 22151CP  25349.96260694 -.00000070  00000-0 -15731-4 0  9996
2 54344  98.8535 345.0170 0056822 153.0699 207.3438 14.07236711158335
Epoch: 2025-12-15T23:06Z
TLE epoch observation values (Epoch: 2025-12-15T23:06:09.239Z)
Latitude
-0.00009°
Longitude
-86.37513°
Altitude
908.37 km
Speed
7.379 km/s
True Right ascension
23h 00m 04s
True Declination
0° 00' 00"
Sunlit
Object was in daylight at epoch
Visualization orbit readout
Latitude
Unknown
Longitude
Unknown
Altitude
Unknown
Speed
Unknown
Apparent Right ascension
Unknown
Apparent Declination
Unknown
Sunlit
N/A
Visualization observer readout
Local Sidereal Time
17:41:36
Azimuth
Unknown
Elevation
Unknown
Doppler factor
Unknown
Orbital elements
Apogee altitude
907.188 km
Perigee altitude
824.863 km
Semi-major axis
7,244.163 km
Eccentricity
0.00568
Inclination
98.8535°
RAAN
345.017°
Arg. of periapsis
153.0699°
True anomaly
207.04659°
Mean anomaly
207.3438°
Eccentric anomaly
207.19501°
Mean motion
3.52015 °/min
Orbital period
102.27 mins
BSTAR
-0.000015731
Loading maneuver chart data...
Computing Atmospheric mass density...
Loading historical data...
Loading historical data...
Loading historical data...
Loading historical data...
Loading historical data...
Loading historical data...
Loading historical data...

Documentation

Showing up to 5 results
|